Location: Beetenbrück
(52.8113°N, 9.5946°E)
Time: 16:40:56
(UTC+00:00)

Cosmos 1864 Rocket - Pass Details

Date: 14 April 2026
Orbit: 951 x 995 km, 82.9° (Epoch: 9 May)

Event Time Altitude Azimuth Distance (km) Brightness Sun altitude
Exits shadow 23:07:42 73° 163° (SSE) 1,033 4.3 -27.4°
Maximum altitude 23:08:20 83° 99° (E) 1,002 4.4 -27.4°
Drops below altitude 10° 23:14:43 10° 12° (NNE) 2,768 7.8 -27.5°
Sets 23:17:15 0° 12° (NNE) 3,724 8.7 -27.5°
